Regional Weather Roundup
Issued by NWS

Home | Current Version | Previous Version | Graphics & Text | Print | Product List | Glossary On
Versions: 1 2 3 4 5 6 7 8 9 10 11 12 13 14 15 16 17 18 19 20 21 22 23 24 25 26 27 28 29 30 31 32 33 34 35 36 37 38 39 40 41 42 43 44 45 46 47 48 49 50
000
ASUS43 KMPX 221801
RWRMN
WEATHER ROUNDUP FOR MINNESOTA
NATIONAL WEATHER SERVICE TWIN CITIES/CHANHASSEN MN
100 PM CDT MON SEP 22 2014


NOTE: "FAIR" INDICATES FEW OR NO CLOUDS BELOW 12,000 FEET WITH NO
SIGNIFICANT WEATHER AND/OR OBSTRUCTIONS TO VISIBILITY. N/A MEANS
CURRENT SKY AND/OR WEATHER CONDITIONS ARE NOT AVAILABLE.

MNZ060>063-068>070-221900-
   Twin Cities Metro

CITY           SKY/WX    TMP DP  RH WIND       PRES   REMARKS
TWIN CITIES    MOSUNNY   68  51  54 W9        30.24F
6HR MIN TEMP:  49; 6HR MAX TEMP:  68;

ST PAUL        SUNNY     67  51  56 W7        30.24F
CRYSTAL        SUNNY     67  49  52 SW7       30.22F
BLAINE         MOSUNNY   70  54  56 W7        30.23F
LAKEVILLE      SUNNY     66  52  59 SW3       30.24F
EDEN PRAIRIE   MOSUNNY   68  51  54 W7        30.23F
6HR MIN TEMP:  46; 6HR MAX TEMP:  69;

SOUTH ST PAUL  SUNNY     67  50  53 W6        30.24F
LAKE ELMO      FAIR      64  52  63 NW9       30.25F
$$
MNZ001>005-007-008-013>017-022>024-027-028-221900-
   Northwest Minnesota

CITY           SKY/WX    TMP DP  RH WIND       PRES   REMARKS
BEMIDJI        SUNNY     70  47  44 W9        30.15F
HALLOCK        SUNNY     73  52  46 SW8       30.07F
ROSEAU         SUNNY     72  52  49 SW8       30.09S
WARROAD        SUNNY     70  55  60 SW10G16   30.09S
THIEF RVR FALL SUNNY     70  48  46 SW10      30.12F
CROOKSTON      SUNNY     70  54  56 S9        30.13F
FOSSTON        SUNNY     72  54  53 SW10      30.16S
DETROIT LAKES  SUNNY     68  48  49 SW8       30.19F
MOORHEAD       SUNNY     72  48  43 W8        30.16F
PARK RAPIDS    SUNNY     70  48  45 W10       30.18F
MAHNOMEN       FAIR      68  47  47 W8        30.16F
$$
MNZ006-009>011-018-025>026-221900-
   North Central Minnesota

CITY           SKY/WX    TMP DP  RH WIND       PRES   REMARKS
BAUDETTE       SUNNY     70  48  45 SW8G17    30.09F
FLAG ISLAND    SUNNY     68  48  49 SW9       30.05F
INTL FALLS     SUNNY     70  50  49 W9        30.09F
6HR MIN TEMP:  43; 6HR MAX TEMP:  70;

WASKISH        SUNNY     66  54  63 CALM      30.12F
BIG FORK       SUNNY     70  50  49 SW7       30.14F
LONGVILLE      SUNNY     70  52  52 SW7       30.18S
GRAND RAPIDS   SUNNY     66  48  52 W10       30.17F
CRANE LAKE     SUNNY     66  48  52 W6        30.12S
ORR            SUNNY     70  48  46 SW7       30.10F
COOK           SUNNY     66  50  55 SW10      30.13F
WALKER         FAIR      68  48  49 W9G16     30.16F
$$
MNZ012-019>021-037-221900-
   Northeast Minnesota

CITY           SKY/WX    TMP DP  RH WIND       PRES   REMARKS
DULUTH         MOSUNNY   68  50  52 W15G22    30.16F
6HR MIN TEMP:  48; 6HR MAX TEMP:  68;

ELY            SUNNY     66  46  48 W9        30.12S
HIBBING        SUNNY     69  50  50 W10G17    30.15F
EVELETH        SUNNY     66  50  55 W14       30.15F
DULUTH HARBOR  SUNNY     70  54  56 SW9G16    30.16F
TWO HARBORS    SUNNY     68  52  56 W14G22    30.12F
SILVER BAY     SUNNY     66  55  68 CALM      30.11F
GRAND MARAIS     N/A     57  51  80 W5        30.09F
G MARAIS ARPRT SUNNY     64  45  48 W6        30.11F
$$
MNZ029>031-032-039>041-046>048-054>057-064-221900-
   West Central Minnesota

CITY           SKY/WX    TMP DP  RH WIND       PRES   REMARKS
FERGUS FALLS   SUNNY     72  45  37 SW9       30.18F
WHEATON        SUNNY     72  46  40 S7        30.19F
MORRIS         SUNNY     72  52  49 S8        30.19F
ALEXANDRIA     SUNNY     69  50  50 SW10      30.22F
ELBOW LAKE     FAIR      69  50  50 SW7       30.19F
WADENA         SUNNY     68  48  49 W8        30.19F
GLENWOOD       SUNNY     70  50  49 W8        30.22F
APPLETON       SUNNY     73  46  38 S7        30.19F
BENSON         SUNNY     70  52  52 W10       30.21F
ORTONVILLE     SUNNY     72  46  40 W6        30.19F
MADISON        SUNNY     73  48  40 SW7       30.20F
WILLMAR        FAIR      70  46  43 W8        30.23F
$$
MNZ033>034-036-042>043-049>051-058-059-221900-
   Central Minnesota

CITY           SKY/WX    TMP DP  RH WIND       PRES   REMARKS
ST CLOUD       MOSUNNY   71  50  47 SW5       30.22F
6HR MIN TEMP:  44; 6HR MAX TEMP:  71;

SAUK CENTRE    FAIR      68  49  49 SW9       30.22F
PAYNESVILLE    SUNNY     65  47  53 S7        30.23F
AITKIN         SUNNY     72  52  49 W8        30.18F
PINE RIVER     SUNNY     68  52  56 W6        30.21F
BRAINERD       SUNNY     67  49  52 W10       30.20F
STAPLES        SUNNY     70  48  46 W7        30.19F
LONG PRAIRIE   FAIR      68  48  49 SW7       30.22S
LITTLE FALLS   SUNNY     68  46  45 W7        30.21F
LITCHFIELD     SUNNY     70  50  49 SW3       30.23F
BUFFALO        SUNNY     67  48  51 W8        30.24F
MAPLE LAKE     SUNNY     68  53  57 SW5       30.23F
$$
MNZ037-044-045-052-053-221900-
   East Central Minnesota

CITY           SKY/WX    TMP DP  RH WIND       PRES   REMARKS
PRINCETON      SUNNY     70  52  52 SW6       30.22F
MORA           MOSUNNY   66  48  52 SW6       30.22F
CAMBRIDGE      SUNNY     70  54  56 SW6       30.21S
RUSH CITY      SUNNY     67  52  59 SW5       30.22F
MOOSE LAKE     SUNNY     68  48  49 W10       30.17F
HINCKLEY       FAIR      68  52  56 W5G17     30.20F
CLOQUET        SUNNY     66  48  52 W14       30.17F
MCGREGOR       SUNNY     68  50  52 SW9       30.19F
$$
MNZ071>073-080-081-089-090-097-098-221900-
   Southwest Minnesota

CITY           SKY/WX    TMP DP  RH WIND       PRES   REMARKS
MONTEVIDEO     SUNNY     73  52  46 W6        30.22F
GRANITE FALLS  SUNNY     71  48  43 S7        30.23F
CANBY          SUNNY     71  48  45 S7        30.22F
MARSHALL       SUNNY     72  46  40 W8        30.22F
REDWOOD FALLS  SUNNY     70  47  43 W8        30.22F
OLIVIA         SUNNY     70  50  49 W7        30.22F
PIPESTONE      SUNNY     68  45  42 SW8       30.24F
WINDOM         SUNNY     70  46  43 S7        30.25F
WORTHINGTON    SUNNY     66  46  48 SW7       30.26F
JACKSON        SUNNY     70  46  43 SW9       30.27S
TRACY          SUNNY     70  47  44 SW3       30.23F
SLAYTON        SUNNY     68  44  42 CALM      30.26S
$$
MNZ065>067-074>077-082>085-091>093-221900-
   South Central Minnesota

CITY           SKY/WX    TMP DP  RH WIND       PRES   REMARKS
MANKATO        MOSUNNY   66  46  48 SW7       30.25F
NEW ULM        SUNNY     68  52  56 SW9       30.24S
ST JAMES       SUNNY     70  46  43 SW8       30.26F
FAIRMONT       SUNNY     70  45  40 SW5       30.27S
GLENCOE        SUNNY     69  47  44 SW7       30.24S
FARIBAULT      SUNNY     70  46  43 W3        30.26F
OWATONNA       SUNNY     66  48  52 CALM      30.26F
WASECA         SUNNY     64  45  48 SW7       30.28F
ALBERT LEA     SUNNY     66  50  55 CALM      30.27S
$$
MNZ078>079-086>088-094>096-221900-
   Southeast Minnesota

CITY           SKY/WX    TMP DP  RH WIND       PRES   REMARKS
ROCHESTER      SUNNY     65  49  56 W6        30.28F
6HR MIN TEMP:  43; 6HR MAX TEMP:  66;

RED WING       SUNNY     66  52  59 W8        30.24F
STANTON        SUNNY     68  51  54 W7        30.24F
DODGE CENTER   SUNNY     64  52  63 W5        30.27S
WINONA         MOSUNNY   70  54  56 NW7       30.26S
AUSTIN         SUNNY     64  50  59 SW6       30.27F
PRESTON        SUNNY     64  55  71 W8        30.28S
$$
ABBREVIATIONS USED IN REMARKS
   TC - TEMPERATURES IN CELSIUS
  WCI - WIND CHILL INDEX
   HX - HEAT INDEX
  VSB - VISIBILITY
$$



USA.gov is the U.S. government's official web portal to all federal, state and local government web resources and services.